Location: Newark
(44.6768°N, 22.5302°E)
Time: 09:21:47
(UTC+00:00)

CAS-6 - Pass Details

Date: 27 June 2022
Orbit: 613 x 634 km, 97.9° (Epoch: 14 August)

Event Time Altitude Azimuth Distance (km) Brightness Sun altitude
Exits shadow 22:01:33 13° 249° (WSW) 1,793 ? -21.7°
Maximum altitude 22:02:54 15° 269° (W) 1,700 ? -21.7°
Drops below altitude 10° 22:05:25 10° 305° (NW) 2,009 ? -21.7°
Sets 22:08:30 0° 329° (NNW) 2,917 ? -21.8°
